DMSP 5D-2 F13 DEB

Satellite information

Favourite Embed

Satellite Type and Status

DEBRISIN ORBIT

Key statistics

Satellite DMSP 5D-2 F13 DEB at a glance.

Uptime

11223

Days in orbit

Revolutions

≈ 15.1

Per day

Orbit

SSO

Sun Synchronous Orbit

Inclination

98.8

Latest

Satellite identification and parameters

Extended collection of information and parameters for DMSP 5D-2 F13 DEB.

Object identification

Identified? True

Debris? True

Object name: DMSP 5D-2 F13 DEB

International designator: 1995-015AQ

Object number (NORAD): 40438

Object ID (CCSDS): 40438

Country: UNITED STATES OF AMERICA (US)

Current information (Y/N): Y

RCS size: SMALL

Orbital parameters

Period: 95.333 minutes

Inclination: 98.8393 deg

SMA: 6912.829 km

Apoapsis: 542.685 km

Periapsis: 526.703 km

RAAN: 42.409 deg

Eccentricy: 0.00115594

Argument of periapsis: 252.1185 deg

Mean anomaly: 107.878 deg

Mean motion: 15.10494051 rev/day

Mean motion (dot): 0.00267208 rev/day2

B* drag term: 0.015625434 1/REarth

Two-line elements (TLE)

Creation date: Dec. 13, 2025, 4:32 a.m.

Reference frame: TEME

Reference center: EARTH

Epoch: Dec. 12, 2025, 9:58 p.m. UTC

TLE line 0: 0 DMSP 5D-2 F13 DEB

TLE line 1: 1 40438U 95015AQ 25346.91544952 .00267208 00000-0 15625-1 0 9993

TLE line 2: 2 40438 98.8393 42.4090 0011559 252.1185 107.8780 15.10494051560546

Live tracking on map

Real-time ground track for satellite DMSP 5D-2 F13 DEB.

In-orbit conjunctions

A list of the most updated potential collisions computed for object DMSP 5D-2 F13 DEB.

Target Orbit TCA Probability of collision Miss distance Type
DELTA 1 R/B(1) MEO 2024-09-18 17:53:00 0.0001059666 677.0 (m) ROCKET BODY
SS 3 LEO 2024-07-25 05:28:02 0.0002728222 179.0 (m) PAYLOAD
SL-8 R/B LEO 2024-06-21 19:22:13 0.000510541 141.0 (m) ROCKET BODY

Associated space launch

Military meteorological satellite

DMSP 5D-2 F13 DEB was lifted into orbit during the mission ‘Atlas E | DMSP-5D2 F13’, on board a Atlas E space rocket.

The launch took place on March 24, 1995, 2:05 p.m. from Space Launch Complex 3W.

For more information about the launch, click the button.

Launch to space Atlas E | DMSP-5D2 F13
Atlas E | DMSP-5D2 F13

Agency: N/A

Status: Launch Successful

Launch date: March 24, 1995, 2:05 p.m. UTC

Rocket: Atlas E

Launch pad: Space Launch Complex 3W

Location: Vandenberg SFB, CA, USA

...

Latest news about this satellite

There are no fresh news available about this satellite. Check back as we update our databases every day.


Newsletter sign-up

Weekly statistics, charts and insights to help you stay on top of the space industry.